Retour au catalogue

COSMOS 1823 DEB

ActifLEO
NORAD 18910·DEBRIS·🇷🇺 Russia

Lancé Feb 20, 1987 depuis Plesetsk Cosmodrome

Loading…

Prochains Passages (prochaines 24 heures)

TLE

FraisSource: Space-Track

Époque: Sep 14, 2026, 06:14 UTC

1 18910U 87020AU  26257.26036322  .00000079  00000-0  64673-3 0  9997
2 18910  73.6765 185.5096 0015282 175.3649 337.9674 12.48761831761938

Suivez COSMOS 1823 DEB en temps réel avec AllMySat

Download on the App Store